New Deal, TX

6:42 AM CDT on August 24, 2016 (GMT -0500)
Lubbock International

Weather History for KLBB - April, 2013

Change the Weather History Date:

Monday, April 1, 2013

  Actual Average Record
Temperature  
Mean Temperature 67 °F 56 °F  
Max Temperature 86 °F 71 °F 96 °F (1946)
Min Temperature 47 °F 41 °F 22 °F (1948)
Degree Days  
Heating Degree Days 0 9  
Month to date heating degree days 0 9  
Since 1 July heating degree days 2886 3163  
Cooling Degree Days 2 1  
Month to date cooling degree days 2 1  
Year to date cooling degree days 4 8  
Growing Degree Days 17 (Base 50)    
Moisture  
Dew Point 43 °F    
Average Humidity 49    
Maximum Humidity 83    
Minimum Humidity 14    
Precipitation  
Precipitation 0.00 in 0.04 in 0.70 in (2000)
Month to date precipitation 0.00 0.04  
Year to date precipitation 2.23 2.54  
Snow  
Snow 0.00 in 0.00 in 1.00 in (1915)
Month to date snowfall 0.0 0.0  
Since 1 July snowfall 3.7 8.0  
Snow Depth 0.00 in    
Sea Level Pressure  
Sea Level Pressure 29.88 in    
Wind  
Wind Speed 16 mph (SSE)    
Max Wind Speed 36 mph    
Max Gust Speed 44 mph    
Visibility 10 miles    
Events      
T = Trace of Precipitation, MM = Missing Value Source: NWS Daily Summary

Daily Weather History Graph

Daily Weather History Graph

Search for Another Location

Airport or City:

Trip Planner

Search our weather history database for the weather conditions in past years. The results will help you decide how hot, cold, wet, or windy it might be!

Date:

Astronomy

Apr. 01, 2013 Rise Set
Actual Time 7:34 AM CDT 8:08 PM CDT
Civil Twilight 7:09 AM CDT 8:33 PM CDT
Nautical Twilight 6:39 AM CDT 9:02 PM CDT
Astronomical Twilight 6:09 AM CDT 9:32 PM CDT
Moon 1:06 AM CDT (4/1) 11:35 AM CDT (4/1)
Length of Visible Light 13h 23m
Length of Day
12h 33m
Waning Gibbous, 67% of the Moon is Illuminated
Apr 1
Waning Gibbous
Apr 2
Last Quarter
Apr 10
New
Apr 18
First Quarter
Apr 25
Full

Hourly Weather History & Observations

Time (CDT) Temp. Dew Point Humidity Pressure Visibility Wind Dir Wind Speed Gust Speed Precip Events Conditions
12:53 AM 54.0 °F 41.0 °F 62% 29.94 in 10.0 mi SSE 10.4 mph - N/A   Clear
1:53 AM 53.1 °F 39.9 °F 61% 29.93 in 10.0 mi SSE 10.4 mph - N/A   Clear
2:53 AM 53.1 °F 39.9 °F 61% 29.92 in 10.0 mi SSE 9.2 mph - N/A   Clear
3:53 AM 51.1 °F 39.9 °F 66% 29.92 in 10.0 mi SSE 10.4 mph - N/A   Partly Cloudy
4:53 AM 51.1 °F 39.9 °F 66% 29.92 in 10.0 mi SSE 10.4 mph - N/A   Partly Cloudy
5:53 AM 51.1 °F 39.9 °F 66% 29.94 in 10.0 mi South 11.5 mph - N/A   Scattered Clouds
6:53 AM 50.0 °F 41.0 °F 71% 29.95 in 10.0 mi South 6.9 mph - N/A   Scattered Clouds
7:53 AM 48.9 °F 41.0 °F 74% 29.96 in 10.0 mi South 8.1 mph - N/A   Scattered Clouds
8:53 AM 54.0 °F 43.0 °F 66% 29.97 in 10.0 mi South 10.4 mph - N/A   Partly Cloudy
9:53 AM 60.1 °F 48.0 °F 64% 29.96 in 10.0 mi South 16.1 mph - N/A   Partly Cloudy
10:53 AM 66.9 °F 51.1 °F 57% 29.94 in 10.0 mi South 18.4 mph - N/A   Scattered Clouds
11:53 AM 72.0 °F 51.1 °F 48% 29.92 in 10.0 mi South 20.7 mph - N/A   Mostly Cloudy
12:53 PM 77.0 °F 48.9 °F 37% 29.89 in 10.0 mi SSW 19.6 mph 27.6 mph N/A   Mostly Cloudy
1:53 PM 81.0 °F 46.0 °F 29% 29.86 in 10.0 mi South 20.7 mph 28.8 mph N/A   Scattered Clouds
2:53 PM 82.0 °F 42.1 °F 24% 29.83 in 10.0 mi SSW 13.8 mph 25.3 mph N/A   Mostly Cloudy
3:53 PM 81.0 °F 39.0 °F 22% 29.79 in 10.0 mi South 18.4 mph 24.2 mph N/A   Mostly Cloudy
4:53 PM 84.9 °F 37.9 °F 19% 29.75 in 10.0 mi South 21.9 mph 27.6 mph N/A   Scattered Clouds
5:53 PM 82.9 °F 37.0 °F 19% 29.73 in 10.0 mi South 20.7 mph 27.6 mph N/A   Mostly Cloudy
6:53 PM 82.9 °F 28.9 °F 14% 29.72 in 10.0 mi SW 10.4 mph - N/A   Mostly Cloudy
7:53 PM 79.0 °F 28.9 °F 16% 29.73 in 10.0 mi SSW 10.4 mph - N/A   Mostly Cloudy
8:45 PM 60.8 °F 50.0 °F 68% 29.88 in 8.0 mi NE 32.2 mph 39.1 mph N/A   Mostly Cloudy
8:53 PM 59.0 °F 51.1 °F 75% 29.81 in 9.0 mi ENE 28.8 mph 41.4 mph N/A   Mostly Cloudy
9:53 PM 57.0 °F 50.0 °F 77% 29.84 in 10.0 mi East 25.3 mph 34.5 mph N/A   Mostly Cloudy
10:53 PM 55.9 °F 50.0 °F 80% 29.86 in 10.0 mi East 20.7 mph 32.2 mph N/A   Scattered Clouds
11:32 PM 53.6 °F 48.2 °F 82% 29.97 in 10.0 mi ENE 18.4 mph 25.3 mph N/A   Mostly Cloudy
11:53 PM 51.1 °F 46.9 °F 86% 29.88 in 9.0 mi ENE 20.7 mph 29.9 mph N/A   Mostly Cloudy